Regional Weather Roundup
Issued by NWS Upton, NY

Current Version | Previous Version | Text Only | Print | Product List | Glossary On
Versions: 1 2 3 4 5 6 7 8 9 10 11 12 13 14 15 16 17 18 19 20 21 22 23 24 25 26 27 28 29 30 31 32 33 34 35 36 37 38 39 40 41 42 43 44 45 46 47 48 49 50
000
ASUS41 KOKX 281509
RWROKX

REGIONAL WEATHER ROUNDUP
NATIONAL WEATHER SERVICE NEW YORK NY
1100 AM EDT WED JUN 28 2017

NOTE: "FAIR" INDICATES FEW OR NO CLOUDS BELOW 12,000 FEET WITH NO
SIGNIFICANT WEATHER AND/OR OBSTRUCTIONS TO VISIBILITY.

NYZ071-072-176-178-NJZ106-104-281600-
NEW YORK CITY METRO AREA

CITY           SKY/WX    TMP DP  RH WIND       PRES   REMARKS
Central Park   SUNNY     71  49  45 VRB6      30.15R
Bronx Bot Gard   N/A     72  46  40 NW2       30.12S
LaGuardia APRT MOSUNNY   72  51  47 NW9       30.11S
Kennedy INTL   MOSUNNY   74  50  42 VRB5      30.12S
Breezy Point     N/A     68 N/A N/A W7          N/A
Newark/Liberty MOSUNNY   73  49  42 VRB5      30.12S
Teterboro      SUNNY     71  48  43 VRB5      30.11S
$$

NYZ177-179-078>081-281600-
LONG ISLAND NEW YORK

CITY           SKY/WX    TMP DP  RH WIND       PRES   REMARKS
Jones Beach      N/A     68 N/A N/A NW9         N/A
Matinecock PT  NOT AVBL
Farmingdale    SUNNY     72  48  43 N7        30.11S
MacArthur/ISP  MOSUNNY   72  50  45 N12       30.10S
Shirley        SUNNY     72  53  51 W7G17     30.10S
Mt Sinai Harb    N/A     70 N/A N/A W6          N/A
Westhampton    SUNNY     71  49  45 NW13      30.11S
East Hampton   FAIR      69  53  56 W9        30.08S
Montauk          N/A     69  53  56 W8        30.09
$$

NYZ052-065-067-281600-
HUDSON VALLEY

CITY           SKY/WX    TMP DP  RH WIND       PRES   REMARKS
White Plains   MOSUNNY   70  47  43 NW9G17    30.11S
Larchmont Harb   N/A     68 N/A N/A W10         N/A
Croton O-T Hud   N/A     70 N/A N/A CALM        N/A
Newburgh       MOSUNNY   68  52  56 W12       30.11F
Montgomery     MOSUNNY   70  52  52 SW8       30.10F
Poughkeepsie   PTSUNNY   70  51  51 SW7       30.08F
Albany         MOSUNNY   69  50  50 VRB6      30.07F
$$

NJZ001-105-106-008-010-013-015-019>022-104-281600-
NEW JERSEY

CITY           SKY/WX    TMP DP  RH WIND       PRES   REMARKS
Newark/Liberty MOSUNNY   73  49  42 VRB5      30.12S
Teterboro      SUNNY     71  48  43 VRB5      30.11S
Caldwell       MOSUNNY   73  48  41 NW6       30.13S
Somerville     SUNNY     73  53  49 VRB6      30.12S
Linden         FAIR      69  49  48 CALM      30.13S
Perth Amboy      N/A     68 N/A N/A NW5         N/A
Sussex         MOSUNNY   70  51  51 W9        30.12S
Andover          N/A     68  50  52 VRB6      30.13F
Trenton        SUNNY     72  50  45 NW9       30.15R
Millville      SUNNY     73  53  49 N8        30.17R
Atlantic City  SUNNY     74  50  42 NW12      30.16R
Wrightstown    SUNNY     72  51  46 N5        30.13R
Toms River     SUNNY     73  48  41 NW7       30.16R
Belmar         SUNNY     73  48  41 NW8       30.15S
$$

PAZ047>061-062-071-281600-
EASTERN PENNSYLVANIA

CITY           SKY/WX    TMP DP  RH WIND       PRES   REMARKS
Philadelphia   MOSUNNY   73  46  38 NW10      30.17R
Allentown      SUNNY     72  51  47 W10       30.15S
Scranton       MOSUNNY   69  52  54 SW8       30.14S
$$

CTZ002-004>006-009-010-012-RIZ004-006-007-MAZ004-011-015-281600-
SOUTHERN NEW ENGLAND
 IN CT

CITY           SKY/WX    TMP DP  RH WIND       PRES   REMARKS
Bradley INTL   MOSUNNY   72  49  44 W10       30.06F
Hartford       SUNNY     72  50  45 W9        30.06F
Danbury        NOT AVBL
Wtrbury/Oxford MOSUNNY   66  46  48 N8        30.09F
Bridgeport     SUNNY     74  48  39 NW8       30.08F
Meriden        SUNNY     72  50  45 NW8       30.07F
New Haven      MOSUNNY   72  49  44 NW10G18   30.08S
Chester        FAIR      70  48  46 NW9G21    30.08S
Groton         SUNNY     73  50  44 W8        30.06S
Wilimantic     SUNNY     70  53  54 NW9G17    30.07S

 IN RI

CITY           SKY/WX    TMP DP  RH WIND       PRES   REMARKS
Providence     MOSUNNY   72  52  49 NW16G22   30.04S
Block Island   SUNNY     69  54  58 W9        30.08S
Westerly       SUNNY     73  51  46 VRB6      30.07S
 IN MA

CITY           SKY/WX    TMP DP  RH WIND       PRES   REMARKS
Boston         MOSUNNY   70  52  52 W13       30.01F
Worcester      SUNNY     66  47  50 NW17G24   30.05F
Westfield      NOT AVBL
Provincetown   SUNNY     67  55  65 W9        30.03S
Nantucket      SUNNY     70  57  63 SW15      30.05R
$$

ANZ330-335-338-340-345-350-353-355-281600-
COASTAL MARINE OBSERVATIONS


STATION/POSITION TIME  SKY/WX   TEMP    WIND        PRES    VSBY  WAVE
                                AIR SEA DIR/SP/G                  HT/PER
                 (UTC)          (F)     (DEG/KT/KT) (MB)    (MI)  (FT/S)
NY HARB ENTRANCE 1350            64 68  290/ 14/ 16 1019.7          2/ 3
20 S FIRE ISLAND 1450            66 69  310/ 10/ 12 1019.4          2/ 4
GREAT SOUTH BAY  1415            69 75  310/ 10/ 14   N/A
23 SSW MONTAUK P 1350            64 65              1019.1          2/ 7
15 E BARNEGAT LI 1430               65                N/A           2/ 3
HUDSON CANYON    1350            67 67  320/ 12/ 14 1019.5          3/ 5
KINGS POINT      1442            67 66  340/  3/  4 1019.6
EXECUTION ROCKS  1445            68      CALM  /  2   N/A
CENTRAL LI SOUND NOT AVBL
EASTERN LI SOUND NOT AVBL
ROBBINS REEF     1436                   280/ 10/ 12 1020.6
$$


>>>>>>>>>>>>>>>>>>>>>>>>>>>> KEY <<<<<<<<<<<<<<<<<<<<<<<<<<<
>                                                          <
>     SKY/WX - Sky Condition/Present Weather               <
>     TMP    - Temperature in Fahrenheit                   <
>     DP     - Dew Point in Fahrenheit                     <
>     RH     - Relative Humidity in Percent                <
>     WIND   - Direction (from) and Speed in MPH           <
>     PRES   - Mean Sea Level Pressure (inches of Hg)      <
>     WCI    - Wind Chill Index                            <
>     VSB    - VISIBILITY IN MILES                         <
>     HX     - HEAT INDEX                                  <
>     TC     - TEMPERATURE IN CELSIUS                      <
>     VRB    - VARIABLE WIND DIRECTION                     <
>                                                          <
>>>>>>>>>>>>>>>>>>>>>>>>>>>> KEY <<<<<<<<<<<<<<<<<<<<<<<<<<<



USA.gov is the U.S. government's official web portal to all federal, state and local government web resources and services.